• In Uzbekistan
  • List of Countries
  • For 7 days
  • Water Temperature
  • Satellite Maps
  • Weather Map
  • Weather Widgets
  • user-avatar
    Login

    Hourly Weather Paralia

    Today, 18 July, Wednesday

    Time Temperature Precipitation Wind Pressure Humidity
    00:00 +25°C° 0 mm 1 mps 743 mmHg 91%
    01:00 +25°C° 0 mm 1 mps 743 mmHg 92%
    02:00 +24°C° 0 mm 1 mps 743 mmHg 92%
    03:00 +24°C° 0 mm 1 mps 743 mmHg 92%
    04:00 +24°C° 0 mm 1 mps 743 mmHg 92%
    05:00 +25°C° 0 mm 2 mps 743 mmHg 85%
    06:00 +26°C° 0 mm 2 mps 743 mmHg 78%
    07:00 +28°C° 0 mm 2 mps 743 mmHg 72%
    08:00 +29°C° 0 mm 2 mps 743 mmHg 66%
    09:00 +30°C° 0 mm 3 mps 744 mmHg 60%
    10:00 +31°C° 0 mm 3 mps 744 mmHg 54%
    11:00 +33°C° 0 mm 3 mps 744 mmHg 52%
    12:00 +33°C° 0 mm 3 mps 744 mmHg 50%
    13:00 +34°C° 0 mm 4 mps 744 mmHg 48%
    14:00 +33°C° 0 mm 3 mps 744 mmHg 50%
    15:00 +33°C° 0 mm 3 mps 743 mmHg 52%
    16:00 +33°C° 0 mm 3 mps 743 mmHg 53%
    17:00 +30°C° 0.1 mm 3 mps 743 mmHg 60%
    18:00 +29°C° 0.1 mm 2 mps 743 mmHg 67%
    19:00 +27°C° 0.1 mm 2 mps 743 mmHg 73%
    20:00 +26°C° 0.1 mm 2 mps 744 mmHg 77%
    21:00 +26°C° 0.1 mm 1 mps 744 mmHg 80%
    22:00 +25°C° 0.1 mm 1 mps 744 mmHg 83%
    23:00 +25°C° 0 mm 1 mps 744 mmHg 83%

    Tomorrow, 19 July, Thursday

    Time Temperature Precipitation Wind Pressure Humidity
    00:00 +25°C° 0 mm 1 mps 744 mmHg 83%
    01:00 +24°C° 0 mm 1 mps 744 mmHg 83%
    02:00 +24°C° 0 mm 1 mps 744 mmHg 83%
    03:00 +24°C° 0 mm 1 mps 744 mmHg 83%
    04:00 +24°C° 0 mm 1 mps 744 mmHg 83%
    05:00 +25°C° 0 mm 1 mps 744 mmHg 76%
    06:00 +27°C° 0 mm 1 mps 744 mmHg 69%
    07:00 +29°C° 0 mm 1 mps 745 mmHg 63%
    08:00 +30°C° 0 mm 1 mps 745 mmHg 56%
    09:00 +31°C° 0 mm 2 mps 745 mmHg 50%
    10:00 +34°C° 0 mm 3 mps 745 mmHg 44%
    11:00 +34°C° 0 mm 3 mps 745 mmHg 41%
    12:00 +35°C° 0 mm 4 mps 744 mmHg 37%
    13:00 +35°C° 0 mm 5 mps 744 mmHg 34%
    14:00 +35°C° 0 mm 5 mps 744 mmHg 36%
    15:00 +34°C° 0 mm 5 mps 744 mmHg 38%
    16:00 +34°C° 0 mm 5 mps 744 mmHg 39%
    17:00 +32°C° 0 mm 4 mps 744 mmHg 46%
    18:00 +29°C° 0 mm 3 mps 744 mmHg 53%
    19:00 +27°C° 0 mm 2 mps 744 mmHg 61%
    20:00 +27°C° 0 mm 2 mps 744 mmHg 65%
    21:00 +26°C° 0 mm 1 mps 744 mmHg 69%
    22:00 +25°C° 0 mm 1 mps 745 mmHg 73%
    23:00 +25°C° 0 mm 1 mps 745 mmHg 74%

    Day after tomorrow, 20 July, Friday

    Time Temperature Precipitation Wind Pressure Humidity
    00:00 +25°C° 0 mm 1 mps 745 mmHg 76%
    01:00 +24°C° 0 mm 1 mps 745 mmHg 77%
    02:00 +24°C° 0 mm 1 mps 744 mmHg 78%
    03:00 +24°C° 0 mm 1 mps 744 mmHg 79%
    04:00 +24°C° 0 mm 1 mps 744 mmHg 80%
    05:00 +25°C° 0 mm 1 mps 745 mmHg 73%
    06:00 +27°C° 0 mm 1 mps 745 mmHg 66%
    07:00 +29°C° 0 mm 1 mps 745 mmHg 59%
    08:00 +30°C° 0 mm 1 mps 745 mmHg 54%
    09:00 +32°C° 0 mm 1 mps 745 mmHg 48%
    10:00 +34°C° 0 mm 2 mps 745 mmHg 42%
    11:00 +35°C° 0 mm 2 mps 745 mmHg 41%
    12:00 +35°C° 0 mm 2 mps 745 mmHg 41%
    13:00 +35°C° 0 mm 3 mps 745 mmHg 40%
    14:00 +35°C° 0 mm 3 mps 745 mmHg 41%
    15:00 +34°C° 0 mm 3 mps 745 mmHg 43%
    16:00 +34°C° 0 mm 3 mps 744 mmHg 45%
    17:00 +31°C° 0 mm 2 mps 745 mmHg 51%
    18:00 +30°C° 0 mm 2 mps 745 mmHg 56%
    19:00 +28°C° 0 mm 2 mps 745 mmHg 62%
    20:00 +28°C° 0 mm 1 mps 745 mmHg 65%
    21:00 +27°C° 0 mm 1 mps 745 mmHg 68%
    22:00 +26°C° 0 mm 1 mps 745 mmHg 71%
    23:00 +26°C° 0 mm 1 mps 745 mmHg 72%

    21 July, Saturday

    Time Temperature Precipitation Wind Pressure Humidity
    00:00 +26°C° 0 mm 1 mps 745 mmHg 73%
    01:00 +26°C° 0 mm 1 mps 745 mmHg 73%
    02:00 +25°C° 0 mm 1 mps 745 mmHg 74%
    03:00 +25°C° 0 mm 1 mps 745 mmHg 75%
    04:00 +25°C° 0 mm 1 mps 745 mmHg 75%
    05:00 +27°C° 0 mm 1 mps 745 mmHg 69%
    06:00 +28°C° 0 mm 1 mps 745 mmHg 62%
    07:00 +28°C° 0 mm 0 mps 746 mmHg 55%
    08:00 +32°C° 0 mm 1 mps 746 mmHg 51%
    09:00 +33°C° 0 mm 1 mps 746 mmHg 46%
    10:00 +36°C° 0 mm 2 mps 746 mmHg 42%
    11:00 +36°C° 0 mm 2 mps 746 mmHg 40%
    12:00 +36°C° 0 mm 3 mps 746 mmHg 39%
    13:00 +37°C° 0 mm 3 mps 745 mmHg 38%
    14:00 +37°C° 0 mm 3 mps 745 mmHg 38%
    15:00 +36°C° 0 mm 3 mps 745 mmHg 39%
    16:00 +36°C° 0 mm 3 mps 745 mmHg 39%
    17:00 +34°C° 0 mm 3 mps 745 mmHg 46%
    18:00 +31°C° 0 mm 2 mps 745 mmHg 52%
    19:00 +29°C° 0 mm 2 mps 745 mmHg 58%
    20:00 +28°C° 0 mm 2 mps 745 mmHg 61%
    21:00 +28°C° 0 mm 1 mps 745 mmHg 63%
    22:00 +27°C° 0 mm 1 mps 746 mmHg 66%
    23:00 +26°C° 0 mm 1 mps 745 mmHg 66%

    22 July, Sunday

    Time Temperature Precipitation Wind Pressure Humidity
    00:00 +26°C° 0 mm 1 mps 745 mmHg 67%
    01:00 +26°C° 0 mm 1 mps 745 mmHg 67%
    02:00 +26°C° 0 mm 1 mps 745 mmHg 67%
    03:00 +25°C° 0 mm 1 mps 745 mmHg 66%
    04:00 +25°C° 0 mm 1 mps 745 mmHg 65%
    05:00 +27°C° 0 mm 1 mps 745 mmHg 57%
    06:00 +29°C° 0 mm 1 mps 745 mmHg 50%
    07:00 +31°C° 0 mm 1 mps 745 mmHg 42%
    08:00 +33°C° 0 mm 1 mps 745 mmHg 37%
    09:00 +35°C° 0 mm 1 mps 745 mmHg 31%
    10:00 +38°C° 0 mm 2 mps 745 mmHg 26%
    11:00 +39°C° 0 mm 2 mps 745 mmHg 25%
    12:00 +39°C° 0 mm 3 mps 744 mmHg 24%
    13:00 +40°C° 0 mm 3 mps 744 mmHg 24%
    14:00 +39°C° 0 mm 3 mps 744 mmHg 25%
    15:00 +38°C° 0 mm 3 mps 744 mmHg 27%
    16:00 +38°C° 0 mm 3 mps 743 mmHg 28%
    17:00 +36°C° 0 mm 3 mps 743 mmHg 35%
    18:00 +33°C° 0 mm 3 mps 743 mmHg 42%
    19:00 +30°C° 0 mm 3 mps 743 mmHg 49%
    20:00 +29°C° 0 mm 2 mps 743 mmHg 52%
    21:00 +29°C° 0 mm 2 mps 743 mmHg 54%
    22:00 +28°C° 0 mm 2 mps 743 mmHg 56%
    23:00 +28°C° 0 mm 2 mps 742 mmHg 55%

    23 July, Monday

    Time Temperature Precipitation Wind Pressure Humidity
    00:00 +28°C° 0 mm 3 mps 742 mmHg 54%
    01:00 +28°C° 0 mm 3 mps 741 mmHg 53%
    02:00 +27°C° 0.3 mm 2 mps 741 mmHg 59%
    03:00 +27°C° 0.3 mm 2 mps 741 mmHg 65%
    04:00 +26°C° 0.3 mm 2 mps 741 mmHg 71%
    05:00 +27°C° 0.2 mm 2 mps 741 mmHg 69%
    06:00 +28°C° 0.2 mm 2 mps 741 mmHg 67%
    07:00 +29°C° 0.2 mm 2 mps 741 mmHg 65%
    08:00 +30°C° 0 mm 3 mps 740 mmHg 58%
    09:00 +33°C° 0 mm 3 mps 740 mmHg 51%
    10:00 +34°C° 0 mm 3 mps 740 mmHg 44%
    11:00 +35°C° 0 mm 4 mps 740 mmHg 42%
    12:00 +35°C° 0 mm 4 mps 740 mmHg 40%
    13:00 +35°C° 0 mm 5 mps 739 mmHg 38%
    14:00 +34°C° 0 mm 4 mps 739 mmHg 39%
    15:00 +34°C° 0 mm 4 mps 739 mmHg 41%
    16:00 +33°C° 0 mm 4 mps 739 mmHg 42%
    17:00 +30°C° 0 mm 4 mps 739 mmHg 50%
    18:00 +28°C° 0 mm 3 mps 739 mmHg 58%
    19:00 +27°C° 0 mm 2 mps 740 mmHg 66%
    20:00 +26°C° 0 mm 2 mps 740 mmHg 70%
    21:00 +25°C° 0 mm 2 mps 740 mmHg 75%
    22:00 +24°C° 0 mm 2 mps 740 mmHg 80%
    23:00 +24°C° 0 mm 2 mps 740 mmHg 82%
    Show more